Reno, NV

1:29 PM PST on November 21, 2019 (GMT -0800)
Reno-Tahoe International

Weather History for KRNO - October, 2019

Change the Weather History Date:

Friday, October 18, 2019

  Actual Average Record
Temperature  
Mean Temperature 50 °F 53 °F  
Max Temperature 66 °F 68 °F 86 °F (1988)
Min Temperature 33 °F 38 °F 19 °F (1946)
Degree Days  
Heating Degree Days 15 12  
Month to date heating degree days 215 159  
Since 1 July heating degree days 334 249  
Cooling Degree Days 0 0  
Month to date cooling degree days 0 4  
Year to date cooling degree days 1107 838  
Moisture  
Dew Point 26 °F    
Average Humidity 45    
Maximum Humidity 70    
Minimum Humidity 19    
Precipitation  
Precipitation 0.00 in 0.01 in 0.33 in (1972)
Month to date precipitation T 0.29  
Year to date precipitation 9.05 5.33  
Snow  
Snow 0.00 in 0.00 in 1.00 in (1920)
Month to date snowfall 0.0 0.1  
Since 1 July snowfall T 0.2  
Since 1 September snowfall T 0.2  
Snow Depth 0.00 in    
Sea Level Pressure  
Sea Level Pressure 30.00 in    
Wind  
Wind Speed 4 mph ()    
Max Wind Speed 20 mph    
Max Gust Speed 26 mph    
Visibility 10.0 miles    
Events      
T = Trace of Precipitation, MM = Missing Value Source: Averaged Metar Reports

Daily Weather History Graph

Daily Weather History Graph

Search for Another Location

Airport or City:

Astronomy

Oct. 18, 2019 Rise Set
Actual Time 7:12 AM PDT 6:15 PM PDT
Civil Twilight 6:44 AM PDT 6:42 PM PDT
Nautical Twilight 6:13 AM PDT 7:14 PM PDT
Astronomical Twilight 5:42 AM PDT 7:45 PM PDT
Moon 9:37 PM PDT (10/18) 11:49 AM PDT (10/18)
Length of Visible Light 11h 58m
Length of Day
11h 03m
Waning Gibbous, 78% of the Moon is Illuminated
Oct 18
Waning Gibbous
Oct 21
Last Quarter
Oct 27
New
Nov 4
First Quarter
Nov 12
Full

Hourly Weather History & Observations

Time (PDT) Temp. Windchill Dew Point Humidity Pressure Visibility Wind Dir Wind Speed Gust Speed Precip Events Conditions
12:55 AM 44.1 °F 42.5 °F 28.0 °F 53% 29.99 in 10.0 mi West 3.5 mph - N/A   Clear
1:55 AM 39.0 °F 34.8 °F 27.0 °F 62% 29.99 in 10.0 mi SSW 5.8 mph - N/A   Clear
2:55 AM 39.0 °F - 26.1 °F 60% 30.01 in 10.0 mi Calm Calm - N/A   Clear
3:55 AM 37.0 °F - 26.1 °F 65% 30.00 in 10.0 mi Calm Calm - N/A   Clear
4:55 AM 37.9 °F 34.4 °F 26.1 °F 62% 30.02 in 10.0 mi NW 4.6 mph - N/A   Clear
5:55 AM 36.0 °F - 26.1 °F 67% 30.03 in 10.0 mi Calm Calm - N/A   Clear
6:55 AM 34.0 °F - 25.0 °F 70% 30.04 in 10.0 mi Calm Calm - N/A   Scattered Clouds
7:55 AM 37.0 °F 33.3 °F 26.1 °F 65% 30.05 in 10.0 mi WNW 4.6 mph - N/A   Mostly Cloudy
8:55 AM 39.0 °F - 28.0 °F 65% 30.07 in 10.0 mi Calm Calm - N/A   Mostly Cloudy
9:55 AM 44.1 °F 42.5 °F 28.0 °F 53% 30.06 in 10.0 mi East 3.5 mph - N/A   Mostly Cloudy
10:55 AM 50.0 °F - 28.0 °F 43% 30.04 in 10.0 mi Calm Calm - N/A   Mostly Cloudy
11:55 AM 54.0 °F - 27.0 °F 35% 30.01 in 10.0 mi Calm Calm - N/A   Scattered Clouds
12:55 PM 59.0 °F - 27.0 °F 29% 29.97 in 10.0 mi Calm Calm - N/A   Scattered Clouds
1:55 PM 63.0 °F - 27.0 °F 26% 29.94 in 10.0 mi Calm Calm - N/A   Scattered Clouds
2:55 PM 66.0 °F - 24.1 °F 20% 29.91 in 10.0 mi WNW 8.1 mph - N/A   Scattered Clouds
3:55 PM 66.0 °F - 23.0 °F 20% 29.92 in 10.0 mi WSW 15.0 mph 19.6 mph N/A   Scattered Clouds
4:55 PM 64.0 °F - 21.9 °F 20% 29.94 in 10.0 mi West 18.4 mph - N/A   Partly Cloudy
5:55 PM 60.1 °F - 23.0 °F 24% 29.97 in 10.0 mi West 8.1 mph - N/A   Partly Cloudy
6:55 PM 57.9 °F - 25.0 °F 28% 29.99 in 10.0 mi WNW 11.5 mph - N/A   Partly Cloudy
7:55 PM 55.0 °F - 28.9 °F 37% 30.01 in 10.0 mi NW 11.5 mph - N/A   Partly Cloudy
8:55 PM 53.1 °F - 28.9 °F 40% 30.02 in 10.0 mi NNW 13.8 mph - N/A   Clear
9:55 PM 51.1 °F - 28.9 °F 43% 30.03 in 10.0 mi North 9.2 mph - N/A   Clear
10:55 PM 48.9 °F - 28.9 °F 46% 30.04 in 10.0 mi Calm Calm - N/A   Partly Cloudy
11:55 PM 45.0 °F 41.2 °F 26.1 °F 48% 30.01 in 10.0 mi South 6.9 mph - N/A   Partly Cloudy